Terminal Aerodrome Forecast
Issued by NWS

Home | Current Version | Previous Version | Text Only | Print | Product List | Glossary On
Versions: 1 2 3 4 5 6 7 8 9 10 11 12 13 14 15 16 17 18 19 20 21 22 23 24 25 26 27 28 29 30 31 32 33 34 35 36 37 38 39 40 41 42 43 44 45 46 47 48 49 50
000
FTUS43 KAPX 131628 AAB
TAFPLN
TAF AMD
KPLN 131628Z 1316/1412 00000KT 1/2SM FG OVC001
     FM131800 00000KT 3SM BR OVC011
     FM132000 VRB03KT 6SM BR OVC018
     FM132300 VRB04KT P6SM OVC018
     FM140200 VRB04KT 4SM BR OVC009=

USA.gov is the U.S. government's official web portal to all federal, state and local government web resources and services.